STARLINK-35181

Last updated on Mon Oct 20 2025 00:02:05 GMT+0000 (Coordinated Universal Time)

1 65666U 25211Q 25292.11332719 -.00268277 00000+0 -52184-2 0 9992 2 65666 97.6053 334.2755 0001065 61.5899 298.5458 15.48533786 5725

Satellite not in orbit

STARLINK-35181